Spencer, IA

12:37 PM CDT on May 27, 2018 (GMT -0500)
Spencer Municipal

Weather History for KSPW - June, 2013

Change the Weather History Date:

Wednesday, June 19, 2013

  Actual Average Record
Temperature  
Mean Temperature 73 °F -  
Max Temperature 84 °F 81 °F 98 °F (1988)
Min Temperature 62 °F 58 °F 39 °F (2004)
Cooling Degree Days 8    
Growing Degree Days 23 (Base 50)    
Moisture  
Dew Point 59 °F    
Average Humidity 60    
Maximum Humidity 84    
Minimum Humidity 38    
Precipitation  
Precipitation 0.00 in - - ()
Sea Level Pressure  
Sea Level Pressure 29.97 in    
Wind  
Wind Speed 10 mph (SSE)    
Max Wind Speed 20 mph    
Max Gust Speed 26 mph    
Visibility 10 miles    
Events      
Averages and records for this station are not official NWS values.
T = Trace of Precipitation, MM = Missing Value Source: NWS Daily Summary

Daily Weather History Graph

Daily Weather History Graph

Search for Another Location

Airport or City:

Astronomy

Jun. 19, 2013 Rise Set
Actual Time 5:40 AM CDT 9:03 PM CDT
Civil Twilight 5:05 AM CDT 9:39 PM CDT
Nautical Twilight 4:18 AM CDT 10:25 PM CDT
Astronomical Twilight 3:21 AM CDT 11:23 PM CDT
Moon 4:53 PM CDT (6/19) 2:31 AM CDT (6/19)
Length of Visible Light 16h 34m
Length of Day
15h 22m
Waxing Gibbous, 80% of the Moon is Illuminated
Jun 19
Waxing Gibbous
Jun 23
Full
Jun 29
Last Quarter
Jul 8
New
Jul 15
First Quarter

Hourly Weather History & Observations

Time (CDT) Temp. Heat Index Dew Point Humidity Pressure Visibility Wind Dir Wind Speed Gust Speed Precip Events Conditions
12:53 AM 63.0 °F - 55.0 °F 75% 30.01 in - ESE 6.9 mph - N/A   Clear
1:53 AM 64.9 °F - 57.0 °F 75% 30.01 in - SE 9.2 mph - N/A   Clear
2:53 AM 64.0 °F - 55.9 °F 75% 29.99 in - ESE 8.1 mph - N/A   Clear
3:53 AM 64.0 °F - 55.9 °F 75% 29.99 in - SE 8.1 mph - N/A   Clear
4:53 AM 63.0 °F - 55.9 °F 78% 29.99 in - SE 6.9 mph - N/A   Clear
5:53 AM 62.1 °F - 55.9 °F 80% 30.01 in - ESE 3.5 mph - N/A   Clear
6:53 AM 63.0 °F - 57.9 °F 84% 30.02 in 10.0 mi SE 5.8 mph - N/A   Clear
7:53 AM 66.9 °F - 60.1 °F 79% 30.03 in 10.0 mi SSE 9.2 mph - N/A   Clear
8:53 AM 71.1 °F - 62.1 °F 73% 30.03 in 10.0 mi SSE 9.2 mph - N/A   Scattered Clouds
9:53 AM 75.0 °F - 62.1 °F 64% 30.01 in 10.0 mi SSE 8.1 mph - N/A   Clear
10:53 AM 80.1 °F 80.9 °F 60.1 °F 50% 29.99 in - South 9.2 mph - N/A   Clear
11:53 AM 81.0 °F 80.7 °F 55.0 °F 41% 29.99 in 10.0 mi South 10.4 mph - N/A   Partly Cloudy
12:53 PM 82.0 °F 81.6 °F 55.9 °F 41% 29.98 in 10.0 mi South 16.1 mph - N/A   Scattered Clouds
1:53 PM 84.0 °F 83.5 °F 57.9 °F 41% 29.96 in 10.0 mi South 15.0 mph 24.2 mph N/A   Scattered Clouds
2:53 PM 84.0 °F 83.0 °F 55.9 °F 38% 29.95 in 10.0 mi South 16.1 mph 23.0 mph N/A   Scattered Clouds
3:53 PM 84.9 °F 84.4 °F 59.0 °F 41% 29.93 in 10.0 mi South 19.6 mph 25.3 mph N/A   Partly Cloudy
4:53 PM 82.0 °F 82.4 °F 60.1 °F 47% 29.92 in 10.0 mi SSE 17.3 mph 26.5 mph N/A   Scattered Clouds
5:53 PM 84.9 °F 85.0 °F 61.0 °F 44% 29.91 in 10.0 mi South 18.4 mph 26.5 mph N/A   Scattered Clouds
6:53 PM 82.0 °F 82.7 °F 61.0 °F 49% 29.91 in 10.0 mi SSE 19.6 mph 26.5 mph N/A   Scattered Clouds
7:53 PM 82.0 °F 82.1 °F 59.0 °F 45% 29.91 in 9.0 mi South 19.6 mph - N/A   Clear
8:53 PM 78.1 °F - 60.1 °F 54% 29.91 in 10.0 mi SSE 13.8 mph - N/A   Clear
9:53 PM 75.0 °F - 62.1 °F 64% 29.94 in 10.0 mi SSE 8.1 mph - N/A   Clear
10:53 PM 73.0 °F - 62.1 °F 68% 29.95 in 10.0 mi SSE 8.1 mph - N/A   Clear
11:53 PM 73.0 °F - 63.0 °F 71% 29.95 in 10.0 mi SSE 11.5 mph - N/A   Clear